Terminal Aerodrome Forecast
Issued by NWS Aberdeen, SD

Home | Current Version | Previous Version | Text Only | Print | Product List | Glossary On
Versions: 1 2 3 4 5 6 7 8 9 10 11 12 13 14 15 16 17 18 19 20 21 22 23 24 25 26 27 28 29 30 31 32 33 34 35 36 37 38 39 40 41 42 43 44 45 46 47 48 49 50
878
FTAK31 PAFA 201728
TAFABR
TAF
PABR 201728Z 2018/2118 05020G30KT 1SM -SN BR FEW015 OVC025
     FM202100 04018KT 2SM -SN BR OVC025
     FM210200 03016KT 3SM -SN BR OVC015
     FM211400 14012KT 4SM -SN BR OVC025=

USA.gov is the U.S. government's official web portal to all federal, state and local government web resources and services.